Hourly Data Report for October 06, 2017

All times are specified in Local Standard Time (LST). Add 1 hour to adjust for Daylight Saving Time where and when it is observed.

CORAL HARBOUR A
NUNAVUT

64°11'36.000" N
83°21'34.000" W
62.20 m
2301002
71915
YZS

Download Data

Hourly Data (October 2017)
Hourly Data Report for October 6, 2017
Temp Definition
°C
Dew Point Temp Definition
°C
Rel Hum Definition
%
Wind Dir Definition
10's deg

Wind Spd Definition
km/h
Visibility Definition
km
Stn Press Definition
kPa
Hmdx Definition


Wind Chill Definition


Weather Definition


TIME
00:00 Legend Double Dagger -9.4 -11.2 86 33 18 24.1 98.09   -17 LegendNANA
01:00 Legend Double Dagger -11.2 -13.2 85 34 14 24.1 98.13   -18 Mainly Clear
02:00 Legend Double Dagger -9.3 -11.3 86 33 8 19.3 98.17   -14 Snow
03:00 Legend Double Dagger -9.1 -11.0 86 34 18 24.1 98.19   -16 LegendNANA
04:00 Legend Double Dagger -9.6 -11.2 88 2 18 24.1 98.24   -17 Mainly Clear
05:00 Legend Double Dagger -8.6 -10.1 89 3 26 24.1 98.29   -17 LegendNANA
06:00 Legend Double Dagger -8.4 -10.3 86 2 21 24.1 98.33   -16 LegendNANA
07:00 Legend Double Dagger -6.7 -8.7 85 1 24 24.1 98.32   -14 Mainly Clear
08:00 Legend Double Dagger -6.4 -8.1 88 36 24 24.1 98.34   -14 LegendNANA
09:00 Legend Double Dagger -3.5 -5.9 84 36 26 24.1 98.37   -11 LegendNANA
10:00 Legend Double Dagger -3.9 -6.2 84 36 22 24.1 98.42   -10 Mostly Cloudy
11:00 Legend Double Dagger -2.1 -4.9 82 36 17 24.1 98.47   -7 LegendNANA
12:00 Legend Double Dagger -1.2 -4.2 80 2 25 24.1 98.49   -7 LegendNANA
13:00 Legend Double Dagger -0.9 -3.8 81 36 22 24.1 98.58   -7 Mostly Cloudy
14:00 Legend Double Dagger -1.1 -3.9 81 1 26 24.1 98.61   -7 LegendNANA
15:00 Legend Double Dagger -1.6 -4.2 83 34 20 24.1 98.65   -7 LegendNANA
16:00 Legend Double Dagger -2.1 -4.1 87 34 14 24.1 98.75   -7 Cloudy
17:00 Legend Double Dagger -2.9 -5.0 86 1 21 24.1 98.81   -9 LegendNANA
18:00 Legend Double Dagger -4.3 -6.0 88 3 22 24.1 98.91   -11 LegendNANA
19:00 Legend Double Dagger -4.4 -6.0 89 34 15 24.1 99.00   -10 Mostly Cloudy
20:00 Legend Double Dagger -6.5 -7.9 90 36 14 24.1 99.05   -12 LegendNANA
21:00 Legend Double Dagger -7.1 -8.6 89 2 18 24.1 99.08   -14 LegendNANA
22:00 Legend Double Dagger -6.5 -8.4 86 36 16 24.1 99.16   -13 Mainly Clear
23:00 Legend Double Dagger -7.4 -9.1 88 34 15 24.1 99.23   -14 LegendNANA

Notes on Data Quality.

Legend

  • E = Estimated
  • M = Missing
  • NA = Not Available
  • ‡ = Partner data that is not subject to review by the National Climate Archives
Date modified: